This demonstration page uses our WeatherBlox Daily Observations layout. Learn more.

Left ArrowRight Arrow

38.20091, -84.87328

Hourly Observations for August 27, 2021

Temp ( °F °C ) Dew Point ( °F °C ) Humidity (%) Winds ( mph kmh ) Pressure ( in mb ) Visibility ( mi km ) Precip ( " mm )
12:53 am 00:53 Clear 74 23.3 70 21.1 88 88 ESE 3 6 30.10 1019 10 16 0.00 0.00
1:53 am 01:53 Clear 74 23.3 69 20.6 85 85 Calm 30.09 1019 10 16 0.00 0.00
2:53 am 02:53 Clear 73 22.8 69 20.6 87 87 Calm 30.08 1019 10 16 0.00 0.00
3:53 am 03:53 Clear 72 22.2 69 20.6 91 91 Calm 30.08 1019 10 16 0.00 0.00
4:53 am 04:53 Clear 72 22.2 69 20.6 91 91 Calm 30.07 1018 10 16 0.00 0.00
5:53 am 05:53 Clear 71 21.7 69 20.6 94 94 Calm 30.06 1018 10 16 0.00 0.00
6:53 am 06:53 Clear 71 21.7 69 20.6 94 94 Calm 30.06 1018 10 16 0.00 0.00
7:53 am 07:53 Sunny 73 22.8 70 21.1 90 90 Calm 30.09 1019 10 16 0.00 0.00
8:53 am 08:53 Sunny 77 25 71 21.7 82 82 Calm 30.10 1019 10 16 0.00 0.00
9:53 am 09:53 Sunny 81 27.2 73 22.8 77 77 SSW 5 7 30.11 1020 10 16 0.00 0.00
10:53 am 10:53 Sunny 84 28.9 74 23.3 72 72 VRB 3 6 30.12 1020 10 16 0.00 0.00
11:53 am 11:53 Sunny 88 31.1 73 22.8 61 61 VRB 6 9 30.12 1020 10 16 0.00 0.00
12:53 pm 12:53 Sunny 90 32.2 74 23.3 59 59 W 6 9 30.10 1019 10 16 0.00 0.00
1:53 pm 13:53 Mostly Cloudy 89 31.7 73 22.8 59 59 VRB 6 9 30.09 1019 10 16 0.00 0.00
2:53 pm 14:53 Sunny 92 33.3 74 23.3 56 56 S 6 9 30.05 1018 10 16 0.00 0.00
3:41 pm 15:41 Cloudy with Nearby Thunderstorms 84 28.9 73 22.8 70 70 W 8 13 30.03 1017 10 16 0.00 0.00
3:53 pm 15:53 Cloudy with Thunderstorms 83 28.3 71 21.7 67 67 SSW 21 33 30.07 1018 10 16 0.00 0.00
4:53 pm 16:53 Mostly Cloudy with Nearby Thunderstorms 74 23.3 70 21.1 88 88 NNW 6 9 30.12 1020 10 16 0.00 0.00
5:11 pm 17:11 Mostly Cloudy with Light Rain 74 23.3 71 21.7 91 91 Calm 30.11 1020 6 10 0.02 0.51
5:23 pm 17:23 Partly Cloudy with Nearby Thunderstorms 74 23.3 71 21.7 91 91 SE 3 6 30.11 1020 9 14 0.02 0.51
5:38 pm 17:38 Sunny with Light Rain 74 23.3 72 22.2 94 94 Calm 30.11 1020 10 16 0.03 0.76
5:45 pm 17:45 Sunny with Nearby Thunderstorms 74 23.3 71 21.7 91 91 Calm 30.11 1020 10 16 0.03 0.76
5:53 pm 17:53 Partly Cloudy with Nearby Thunderstorms 74 23.3 72 22.2 94 94 E 5 7 30.11 1020 10 16 0.03 0.76
6:00 pm 18:00 Partly Cloudy with Light Rain 73 22.8 71 21.7 94 94 ESE 3 6 30.10 1019 10 16 0.00 0.00
6:16 pm 18:16 Partly Cloudy with Thunderstorms 74 23.3 72 22.2 94 94 SE 3 6 30.10 1019 10 16 0.00 0.00
6:31 pm 18:31 Partly Cloudy with Light Rain 74 23.3 72 22.2 94 94 Calm 30.10 1019 10 16 0.01 0.25
6:53 pm 18:53 Mostly Cloudy with Light Rain 75 23.9 72 22.2 90 90 Calm 30.10 1019 10 16 0.02 0.51
7:53 pm 19:53 Sunny 74 23.3 73 22.8 97 97 NNW 3 6 30.10 1019 10 16 0.00 0.00
8:53 pm 20:53 Clear 73 22.8 72 22.2 96 96 Calm 30.12 1020 10 16 0.00 0.00
9:53 pm 21:53 Clear 74 23.3 72 22.2 94 94 Calm 30.13 1020 10 16 0.00 0.00
10:53 pm 22:53 Clear 74 23.3 72 22.2 94 94 Calm 30.13 1020 10 16 0.00 0.00
11:53 pm 23:53 Clear 73 22.8 72 22.2 96 96 Calm 30.12 1020 8 13 0.00 0.00

Powered by AerisWeather